Time,TemperatureF,DewpointF,PressureIn,WindDirection,WindDirectionDegrees,WindSpeedMPH,WindSpeedGustMPH,Humidity,HourlyPrecipIn,Conditions,Clouds,dailyrainin,SoftwareType,DateUTC
2013-05-07 00:01:00,43.0,36.6,29.99,NNW,337,0.0,0.0,78,0.00,,,0.00,WUHU216WMR100,2013-05-07 05:01:00,
2013-05-07 00:06:00,43.0,36.6,29.99,NNW,337,0.0,0.0,78,0.00,,,0.00,WUHU216WMR100,2013-05-07 05:06:00,
2013-05-07 00:11:00,43.0,37.0,29.99,NNW,337,0.0,0.0,79,0.00,,,0.00,WUHU216WMR100,2013-05-07 05:11:00,
2013-05-07 00:16:00,42.8,36.8,29.99,NNW,337,0.0,0.0,79,0.00,,,0.00,WUHU216WMR100,2013-05-07 05:16:00,
2013-05-07 00:21:00,42.8,37.1,29.99,NNW,337,0.0,0.0,80,0.00,,,0.00,WUHU216WMR100,2013-05-07 05:21:00,
2013-05-07 00:26:00,42.6,37.2,29.99,NNW,337,0.0,0.0,81,0.00,,,0.00,WUHU216WMR100,2013-05-07 05:26:00,
2013-05-07 00:31:00,42.4,37.0,29.99,NNW,337,0.0,0.0,81,0.00,,,0.00,WUHU216WMR100,2013-05-07 05:31:00,
2013-05-07 00:36:00,42.4,37.0,29.99,NNW,337,0.0,0.0,81,0.00,,,0.00,WUHU216WMR100,2013-05-07 05:36:00,
2013-05-07 00:41:00,42.4,37.3,29.99,NNW,337,0.0,0.0,82,0.00,,,0.00,WUHU216WMR100,2013-05-07 05:41:00,
2013-05-07 00:46:00,42.3,36.9,29.99,NNW,337,0.0,0.0,81,0.00,,,0.00,WUHU216WMR100,2013-05-07 05:46:00,
2013-05-07 00:51:00,42.3,37.2,29.99,NNW,337,0.0,0.0,82,0.00,,,0.00,WUHU216WMR100,2013-05-07 05:51:00,
2013-05-07 00:56:00,42.1,37.3,29.99,NNW,337,0.0,0.0,83,0.00,,,0.00,WUHU216WMR100,2013-05-07 05:56:00,
2013-05-07 01:01:00,42.1,37.0,29.96,NNW,337,0.0,0.0,82,0.00,,,0.00,WUHU216WMR100,2013-05-07 06:01:00,
2013-05-07 01:06:00,42.3,37.2,29.96,NNW,337,0.0,0.0,82,0.00,,,0.00,WUHU216WMR100,2013-05-07 06:06:00,
2013-05-07 01:11:00,42.4,37.6,29.96,NNW,337,0.0,0.0,83,0.00,,,0.00,WUHU216WMR100,2013-05-07 06:11:00,
2013-05-07 01:16:00,42.4,37.9,29.96,NNW,337,0.0,0.0,84,0.00,,,0.00,WUHU216WMR100,2013-05-07 06:16:00,
2013-05-07 01:21:00,42.6,38.1,29.96,NNW,337,0.0,0.0,84,0.00,,,0.00,WUHU216WMR100,2013-05-07 06:21:00,
2013-05-07 01:26:00,42.8,38.3,29.96,NNW,337,0.0,0.0,84,0.00,,,0.00,WUHU216WMR100,2013-05-07 06:26:00,
2013-05-07 01:31:00,42.6,38.1,29.96,NNW,337,0.0,0.0,84,0.00,,,0.00,WUHU216WMR100,2013-05-07 06:31:00,
2013-05-07 01:36:00,42.4,37.9,29.96,NNW,337,0.0,0.0,84,0.00,,,0.00,WUHU216WMR100,2013-05-07 06:36:00,
2013-05-07 01:41:00,42.8,38.6,29.96,NNE,22,0.0,0.0,85,0.00,,,0.00,WUHU216WMR100,2013-05-07 06:41:00,
2013-05-07 01:46:00,43.0,38.8,29.96,NNE,22,0.0,0.0,85,0.00,,,0.00,WUHU216WMR100,2013-05-07 06:46:00,
2013-05-07 01:51:00,43.2,39.3,29.96,ESE,112,2.1,2.1,86,0.00,,,0.00,WUHU216WMR100,2013-05-07 06:51:00,
2013-05-07 01:56:00,43.0,39.1,29.96,ESE,112,2.1,2.1,86,0.00,,,0.00,WUHU216WMR100,2013-05-07 06:56:00,
2013-05-07 02:01:00,43.2,39.6,29.96,ESE,112,2.3,3.6,87,0.00,,,0.00,WUHU216WMR100,2013-05-07 07:01:00,
2013-05-07 02:06:00,43.0,39.4,29.96,ESE,112,0.0,3.6,87,0.00,,,0.00,WUHU216WMR100,2013-05-07 07:06:00,
2013-05-07 02:11:00,43.0,39.4,29.96,ESE,112,0.0,0.0,87,0.00,,,0.00,WUHU216WMR100,2013-05-07 07:11:00,
2013-05-07 02:16:00,43.0,39.4,29.96,ESE,112,0.0,0.0,87,0.00,,,0.00,WUHU216WMR100,2013-05-07 07:16:00,
2013-05-07 02:21:00,42.8,39.2,29.96,ESE,112,0.0,0.0,87,0.00,,,0.00,WUHU216WMR100,2013-05-07 07:21:00,
2013-05-07 02:26:00,42.6,39.3,29.99,ESE,112,0.0,0.0,88,0.00,,,0.00,WUHU216WMR100,2013-05-07 07:26:00,
2013-05-07 02:31:00,42.3,39.0,29.99,ESE,112,0.0,0.0,88,0.00,,,0.00,WUHU216WMR100,2013-05-07 07:31:00,
2013-05-07 02:36:00,42.3,39.0,29.99,ESE,112,0.0,0.0,88,0.00,,,0.00,WUHU216WMR100,2013-05-07 07:36:00,
2013-05-07 02:41:00,42.1,38.8,29.96,ESE,112,0.0,0.0,88,0.00,,,0.00,WUHU216WMR100,2013-05-07 07:41:00,
2013-05-07 02:47:00,42.1,38.5,29.96,ESE,112,0.0,0.0,87,0.00,,,0.00,WUHU216WMR100,2013-05-07 07:47:00,
2013-05-07 02:52:00,42.1,38.8,29.96,ESE,112,0.0,0.0,88,0.00,,,0.00,WUHU216WMR100,2013-05-07 07:52:00,
2013-05-07 02:57:00,41.9,38.6,29.96,ESE,112,0.0,0.0,88,0.00,,,0.00,WUHU216WMR100,2013-05-07 07:57:00,
2013-05-07 03:02:00,41.9,38.6,29.96,ESE,112,0.0,0.0,88,0.00,,,0.00,WUHU216WMR100,2013-05-07 08:02:00,
2013-05-07 03:07:00,41.9,38.6,29.96,ESE,112,0.0,0.0,88,0.00,,,0.00,WUHU216WMR100,2013-05-07 08:07:00,
2013-05-07 03:12:00,41.5,38.2,29.96,ESE,112,0.0,0.0,88,0.00,,,0.00,WUHU216WMR100,2013-05-07 08:12:00,
2013-05-07 03:17:00,41.5,38.2,29.96,ESE,112,0.0,0.0,88,0.00,,,0.00,WUHU216WMR100,2013-05-07 08:17:00,
2013-05-07 03:22:00,41.5,38.2,29.96,ESE,112,0.0,0.0,88,0.00,,,0.00,WUHU216WMR100,2013-05-07 08:22:00,
2013-05-07 03:27:00,41.2,37.9,29.96,ESE,112,0.0,0.0,88,0.00,,,0.00,WUHU216WMR100,2013-05-07 08:27:00,
2013-05-07 03:32:00,41.2,37.9,29.96,ESE,112,0.0,0.0,88,0.00,,,0.00,WUHU216WMR100,2013-05-07 08:32:00,
2013-05-07 03:37:00,41.2,38.2,29.96,ESE,112,0.0,0.0,89,0.00,,,0.00,WUHU216WMR100,2013-05-07 08:37:00,
2013-05-07 03:42:00,41.0,38.0,29.99,ESE,112,0.0,0.0,89,0.00,,,0.00,WUHU216WMR100,2013-05-07 08:42:00,
2013-05-07 03:47:00,41.0,38.0,29.99,ESE,112,0.0,0.0,89,0.00,,,0.00,WUHU216WMR100,2013-05-07 08:47:00,
2013-05-07 03:52:00,41.0,38.0,29.99,ESE,112,0.0,0.0,89,0.00,,,0.00,WUHU216WMR100,2013-05-07 08:52:00,
2013-05-07 03:57:00,41.0,38.0,29.96,ESE,112,0.0,0.0,89,0.00,,,0.00,WUHU216WMR100,2013-05-07 08:57:00,
2013-05-07 04:02:00,41.0,38.0,29.96,ESE,112,0.0,0.0,89,0.00,,,0.00,WUHU216WMR100,2013-05-07 09:02:00,
2013-05-07 04:07:00,41.0,38.2,29.96,ESE,112,0.0,0.0,90,0.00,,,0.00,WUHU216WMR100,2013-05-07 09:07:00,
2013-05-07 04:12:00,40.8,38.1,29.99,ESE,112,0.0,0.0,90,0.00,,,0.00,WUHU216WMR100,2013-05-07 09:12:00,
2013-05-07 04:17:00,40.8,38.1,29.99,ESE,112,0.0,0.0,90,0.00,,,0.00,WUHU216WMR100,2013-05-07 09:17:00,
2013-05-07 04:22:00,40.8,37.8,29.99,ESE,112,0.0,0.0,89,0.00,,,0.00,WUHU216WMR100,2013-05-07 09:22:00,
2013-05-07 04:27:00,40.8,38.1,29.99,ESE,112,0.0,0.0,90,0.00,,,0.00,WUHU216WMR100,2013-05-07 09:27:00,
2013-05-07 04:32:00,40.8,38.1,29.99,ESE,112,0.0,0.0,90,0.00,,,0.00,WUHU216WMR100,2013-05-07 09:32:00,
2013-05-07 04:37:00,41.0,38.5,29.99,ESE,112,0.0,0.0,91,0.00,,,0.00,WUHU216WMR100,2013-05-07 09:37:00,
2013-05-07 04:42:00,40.8,38.3,29.99,ESE,112,0.0,0.0,91,0.00,,,0.00,WUHU216WMR100,2013-05-07 09:42:00,
2013-05-07 04:47:00,41.2,38.7,29.99,ESE,112,0.0,0.0,91,0.00,,,0.00,WUHU216WMR100,2013-05-07 09:47:00,
2013-05-07 04:52:00,41.2,38.7,29.99,ESE,112,0.0,0.0,91,0.00,,,0.00,WUHU216WMR100,2013-05-07 09:52:00,
2013-05-07 04:57:00,41.4,38.9,29.99,ESE,112,0.0,0.0,91,0.00,,,0.00,WUHU216WMR100,2013-05-07 09:57:00,
2013-05-07 05:02:00,41.2,38.7,29.99,ESE,112,0.0,0.0,91,0.00,,,0.00,WUHU216WMR100,2013-05-07 10:02:00,
2013-05-07 05:07:00,41.0,38.2,29.99,ESE,112,0.0,0.0,90,0.00,,,0.00,WUHU216WMR100,2013-05-07 10:07:00,
2013-05-07 05:12:00,40.8,38.3,29.99,ESE,112,0.0,0.0,91,0.00,,,0.00,WUHU216WMR100,2013-05-07 10:12:00,
2013-05-07 05:17:00,41.0,38.5,29.99,ESE,112,0.0,0.0,91,0.00,,,0.00,WUHU216WMR100,2013-05-07 10:17:00,
2013-05-07 05:22:00,41.0,38.5,29.99,ESE,112,0.0,0.0,91,0.00,,,0.00,WUHU216WMR100,2013-05-07 10:22:00,
2013-05-07 05:27:00,40.8,38.3,29.99,ESE,112,0.0,0.0,91,0.00,,,0.00,WUHU216WMR100,2013-05-07 10:27:00,
2013-05-07 05:32:00,40.8,38.6,29.99,ESE,112,0.0,0.0,92,0.00,,,0.00,WUHU216WMR100,2013-05-07 10:32:00,
2013-05-07 05:37:00,40.8,38.6,29.99,ESE,112,0.0,0.0,92,0.00,,,0.00,WUHU216WMR100,2013-05-07 10:37:00,
2013-05-07 05:42:00,40.8,38.6,29.99,ESE,112,0.0,0.0,92,0.00,,,0.00,WUHU216WMR100,2013-05-07 10:42:00,
2013-05-07 05:47:00,40.8,38.9,29.99,ESE,112,0.0,0.0,93,0.00,,,0.00,WUHU216WMR100,2013-05-07 10:47:00,
2013-05-07 05:52:00,40.8,38.6,29.99,ESE,112,0.0,0.0,92,0.00,,,0.00,WUHU216WMR100,2013-05-07 10:52:00,
2013-05-07 05:57:00,41.0,38.8,29.99,ESE,112,0.0,0.0,92,0.00,,,0.00,WUHU216WMR100,2013-05-07 10:57:00,
2013-05-07 06:02:00,41.2,39.3,29.99,ESE,112,0.0,0.0,93,0.00,,,0.00,WUHU216WMR100,2013-05-07 11:02:00,
2013-05-07 06:07:00,41.2,39.3,29.99,ESE,112,0.0,0.0,93,0.00,,,0.00,WUHU216WMR100,2013-05-07 11:07:00,
2013-05-07 06:12:00,41.7,40.1,29.99,ESE,112,0.0,0.0,94,0.00,,,0.00,WUHU216WMR100,2013-05-07 11:12:00,
2013-05-07 06:17:00,42.3,40.7,29.99,ESE,112,0.0,0.0,94,0.00,,,0.00,WUHU216WMR100,2013-05-07 11:17:00,
2013-05-07 06:22:00,42.8,41.1,29.99,ESE,112,0.0,0.0,94,0.00,,,0.00,WUHU216WMR100,2013-05-07 11:22:00,
2013-05-07 06:27:00,43.7,42.3,30.02,ESE,112,0.0,0.0,95,0.00,,,0.00,WUHU216WMR100,2013-05-07 11:27:00,
2013-05-07 06:32:00,44.8,43.4,30.02,ESE,112,0.0,0.0,95,0.00,,,0.00,WUHU216WMR100,2013-05-07 11:32:00,
2013-05-07 06:37:00,46.0,45.2,30.02,ESE,112,0.0,0.0,97,0.00,,,0.00,WUHU216WMR100,2013-05-07 11:37:00,
2013-05-07 06:42:00,47.1,46.3,30.02,ESE,112,0.0,0.0,97,0.00,,,0.00,WUHU216WMR100,2013-05-07 11:42:00,
2013-05-07 06:47:00,48.0,47.4,30.02,ESE,112,0.0,0.0,98,0.00,,,0.00,WUHU216WMR100,2013-05-07 11:47:00,
2013-05-07 06:52:00,49.1,48.8,30.02,ESE,112,0.0,0.0,99,0.00,,,0.00,WUHU216WMR100,2013-05-07 11:52:00,
2013-05-07 06:57:00,50.2,49.6,30.02,NNE,22,0.0,2.6,98,0.00,,,0.00,WUHU216WMR100,2013-05-07 11:57:00,
2013-05-07 07:02:00,50.7,49.8,30.02,NNW,337,1.5,2.6,97,0.00,,,0.00,WUHU216WMR100,2013-05-07 12:02:00,
2013-05-07 07:07:00,51.4,49.7,30.02,NNW,337,0.0,3.6,94,0.00,,,0.00,WUHU216WMR100,2013-05-07 12:07:00,
2013-05-07 07:12:00,52.7,49.8,30.02,NNE,22,0.0,3.6,90,0.00,,,0.00,WUHU216WMR100,2013-05-07 12:12:00,
2013-05-07 07:17:00,53.8,48.5,30.02,East,86,3.2,4.8,82,0.00,,,0.00,WUHU216WMR100,2013-05-07 12:17:00,
2013-05-07 07:22:00,54.9,48.2,30.02,ENE,67,3.3,4.8,78,0.00,,,0.00,WUHU216WMR100,2013-05-07 12:22:00,
2013-05-07 07:27:00,55.0,47.3,30.02,ENE,67,0.0,3.3,75,0.00,,,0.00,WUHU216WMR100,2013-05-07 12:27:00,
2013-05-07 07:32:00,54.1,45.0,30.02,ENE,67,2.5,2.6,71,0.00,,,0.00,WUHU216WMR100,2013-05-07 12:32:00,
2013-05-07 07:37:00,55.0,46.2,30.02,NNE,22,0.0,2.6,72,0.00,,,0.00,WUHU216WMR100,2013-05-07 12:37:00,
2013-05-07 07:42:00,56.3,45.6,30.02,North,0,2.0,3.3,67,0.00,,,0.00,WUHU216WMR100,2013-05-07 12:42:00,
2013-05-07 07:47:00,57.6,45.2,30.02,NNW,337,2.1,3.3,63,0.00,,,0.00,WUHU216WMR100,2013-05-07 12:47:00,
2013-05-07 07:52:00,58.1,45.3,30.02,NNW,337,4.5,4.5,62,0.00,,,0.00,WUHU216WMR100,2013-05-07 12:52:00,
2013-05-07 07:57:00,58.5,42.9,30.02,NNW,337,5.0,5.9,56,0.00,,,0.00,WUHU216WMR100,2013-05-07 12:57:00,
2013-05-07 08:02:00,59.2,42.1,30.02,NNW,337,5.9,5.9,53,0.00,,,0.00,WUHU216WMR100,2013-05-07 13:02:00,
2013-05-07 08:07:00,59.7,41.6,30.02,NNW,337,5.6,5.9,51,0.00,,,0.00,WUHU216WMR100,2013-05-07 13:07:00,
2013-05-07 08:12:00,60.4,42.2,30.02,NNW,337,4.8,5.6,51,0.00,,,0.00,WUHU216WMR100,2013-05-07 13:12:00,
2013-05-07 08:17:00,61.3,42.0,30.02,NNW,337,7.1,7.1,49,0.00,,,0.00,WUHU216WMR100,2013-05-07 13:17:00,
2013-05-07 08:22:00,62.2,42.2,30.02,NNW,337,5.1,7.1,48,0.00,,,0.00,WUHU216WMR100,2013-05-07 13:22:00,
2013-05-07 08:27:00,63.9,43.2,30.02,NNW,337,5.9,7.1,47,0.00,,,0.00,WUHU216WMR100,2013-05-07 13:27:00,
2013-05-07 08:32:00,65.1,44.3,30.02,WSW,255,2.2,5.9,47,0.00,,,0.00,WUHU216WMR100,2013-05-07 13:32:00,
2013-05-07 08:37:00,66.2,44.8,30.02,SSW,202,5.6,5.9,46,0.00,,,0.00,WUHU216WMR100,2013-05-07 13:37:00,
2013-05-07 08:42:00,67.3,44.6,30.02,ESE,115,4.8,5.9,44,0.00,,,0.00,WUHU216WMR100,2013-05-07 13:42:00,
2013-05-07 08:47:00,68.4,45.6,30.02,SSE,151,2.9,5.9,44,0.00,,,0.00,WUHU216WMR100,2013-05-07 13:47:00,
2013-05-07 08:52:00,69.3,46.4,30.02,East,90,2.6,4.5,44,0.00,,,0.00,WUHU216WMR100,2013-05-07 13:52:00,
2013-05-07 08:57:00,69.4,43.2,30.02,NNW,337,5.0,5.9,39,0.00,,,0.00,WUHU216WMR100,2013-05-07 13:57:00,
2013-05-07 09:02:00,70.0,44.4,30.02,WSW,247,4.8,5.9,40,0.00,,,0.00,WUHU216WMR100,2013-05-07 14:02:00,
2013-05-07 09:07:00,70.3,45.4,30.02,WNW,300,2.6,4.8,41,0.00,,,0.00,WUHU216WMR100,2013-05-07 14:07:00,
2013-05-07 09:12:00,70.0,42.4,30.02,NNW,348,4.3,5.9,37,0.00,,,0.00,WUHU216WMR100,2013-05-07 14:12:00,
2013-05-07 09:17:00,70.2,42.5,30.02,NNW,341,3.0,6.6,37,0.00,,,0.00,WUHU216WMR100,2013-05-07 14:17:00,
2013-05-07 09:22:00,71.1,44.8,30.02,NNW,337,4.8,6.6,39,0.00,,,0.00,WUHU216WMR100,2013-05-07 14:22:00,
2013-05-07 09:27:00,71.2,43.4,30.02,NW,315,5.1,5.1,37,0.00,,,0.00,WUHU216WMR100,2013-05-07 14:27:00,
2013-05-07 09:32:00,72.1,44.2,30.02,NW,315,2.6,5.1,37,0.00,,,0.00,WUHU216WMR100,2013-05-07 14:32:00,
2013-05-07 09:37:00,72.1,42.8,30.02,NW,315,6.6,6.6,35,0.00,,,0.00,WUHU216WMR100,2013-05-07 14:37:00,
2013-05-07 09:42:00,72.3,42.2,30.02,NNW,337,5.1,6.6,34,0.00,,,0.00,WUHU216WMR100,2013-05-07 14:42:00,
2013-05-07 09:47:00,72.1,42.8,30.02,NNW,337,5.1,7.8,35,0.00,,,0.00,WUHU216WMR100,2013-05-07 14:47:00,
2013-05-07 09:52:00,72.7,44.0,30.02,North,0,3.3,7.8,36,0.00,,,0.00,WUHU216WMR100,2013-05-07 14:52:00,
2013-05-07 09:57:00,73.0,44.3,30.02,NNE,22,5.6,6.3,36,0.00,,,0.00,WUHU216WMR100,2013-05-07 14:57:00,
2013-05-07 10:02:00,72.3,42.2,30.02,NE,37,6.9,7.8,34,0.00,,,0.00,WUHU216WMR100,2013-05-07 15:02:00,
2013-05-07 10:07:00,72.1,41.2,30.02,NNW,337,5.0,7.8,33,0.00,,,0.00,WUHU216WMR100,2013-05-07 15:07:00,
2013-05-07 10:12:00,71.8,41.7,30.02,NW,308,4.9,6.6,34,0.00,,,0.00,WUHU216WMR100,2013-05-07 15:12:00,
2013-05-07 10:17:00,72.7,42.5,30.02,WNW,292,3.2,6.6,34,0.00,,,0.00,WUHU216WMR100,2013-05-07 15:17:00,
2013-05-07 10:22:00,72.3,41.4,30.02,NW,315,7.8,7.8,33,0.00,,,0.00,WUHU216WMR100,2013-05-07 15:22:00,
2013-05-07 10:27:00,71.6,40.8,30.02,NNW,337,11.4,11.4,33,0.00,,,0.00,WUHU216WMR100,2013-05-07 15:27:00,
2013-05-07 10:32:00,71.2,40.4,30.02,NNW,337,6.2,11.4,33,0.00,,,0.00,WUHU216WMR100,2013-05-07 15:32:00,
2013-05-07 10:37:00,70.7,40.0,30.02,North,355,5.1,11.9,33,0.00,,,0.00,WUHU216WMR100,2013-05-07 15:37:00,
2013-05-07 10:42:00,70.7,40.0,30.02,NNW,337,8.9,11.9,33,0.00,,,0.00,WUHU216WMR100,2013-05-07 15:42:00,
2013-05-07 10:47:00,70.3,40.4,30.02,NNW,346,5.3,8.9,34,0.00,,,0.00,WUHU216WMR100,2013-05-07 15:47:00,
2013-05-07 10:52:00,70.5,40.6,30.02,NNW,345,6.0,12.2,34,0.00,,,0.00,WUHU216WMR100,2013-05-07 15:52:00,
2013-05-07 10:57:00,71.4,41.4,30.02,NNW,334,4.3,12.2,34,0.00,,,0.00,WUHU216WMR100,2013-05-07 15:57:00,
2013-05-07 11:02:00,71.2,40.4,30.02,NNE,31,5.3,7.8,33,0.00,,,0.00,WUHU216WMR100,2013-05-07 16:02:00,
2013-05-07 11:07:00,71.2,40.4,30.02,North,5,4.1,7.8,33,0.00,,,0.00,WUHU216WMR100,2013-05-07 16:07:00,
2013-05-07 11:12:00,72.3,41.4,30.02,NNW,337,8.9,8.9,33,0.00,,,0.00,WUHU216WMR100,2013-05-07 16:12:00,
2013-05-07 11:17:00,71.1,37.9,30.02,NNW,348,7.0,9.9,30,0.00,,,0.00,WUHU216WMR100,2013-05-07 16:17:00,
2013-05-07 11:22:00,71.4,40.6,30.02,NW,315,10.4,10.4,33,0.00,,,0.00,WUHU216WMR100,2013-05-07 16:22:00,
2013-05-07 11:27:00,71.2,40.4,30.02,NNW,339,5.7,10.4,33,0.00,,,0.00,WUHU216WMR100,2013-05-07 16:27:00,
2013-05-07 11:32:00,71.4,40.6,30.02,North,9,5.6,10.4,33,0.00,,,0.00,WUHU216WMR100,2013-05-07 16:32:00,
2013-05-07 11:37:00,71.6,40.8,30.02,NNW,346,6.6,8.9,33,0.00,,,0.00,WUHU216WMR100,2013-05-07 16:37:00,
2013-05-07 11:42:00,71.2,40.4,30.02,NW,315,4.5,9.2,33,0.00,,,0.00,WUHU216WMR100,2013-05-07 16:42:00,
2013-05-07 11:47:00,70.5,39.8,30.02,NNW,337,6.6,9.2,33,0.00,,,0.00,WUHU216WMR100,2013-05-07 16:47:00,
2013-05-07 11:52:00,70.5,39.0,30.02,NNW,337,8.9,9.6,32,0.00,,,0.00,WUHU216WMR100,2013-05-07 16:52:00,
2013-05-07 11:57:00,69.1,37.8,30.02,North,349,6.7,9.6,32,0.00,,,0.00,WUHU216WMR100,2013-05-07 16:57:00,
2013-05-07 12:02:00,68.9,38.4,30.02,NNW,337,7.1,9.6,33,0.00,,,0.00,WUHU216WMR100,2013-05-07 17:02:00,
2013-05-07 12:07:00,70.3,39.6,30.02,NNW,337,9.9,10.7,33,0.00,,,0.00,WUHU216WMR100,2013-05-07 17:07:00,
2013-05-07 12:12:00,71.2,41.2,30.02,NNW,337,4.9,10.7,34,0.00,,,0.00,WUHU216WMR100,2013-05-07 17:12:00,
2013-05-07 12:17:00,71.8,41.0,30.02,NNW,327,8.2,9.2,33,0.00,,,0.00,WUHU216WMR100,2013-05-07 17:17:00,
2013-05-07 12:22:00,71.6,40.0,30.02,North,2,7.1,9.9,32,0.00,,,0.00,WUHU216WMR100,2013-05-07 17:22:00,
2013-05-07 12:27:00,71.4,40.6,30.02,North,0,5.1,9.9,33,0.00,,,0.00,WUHU216WMR100,2013-05-07 17:27:00,
2013-05-07 12:32:00,72.5,41.6,30.02,NE,45,9.2,9.6,33,0.00,,,0.00,WUHU216WMR100,2013-05-07 17:32:00,
2013-05-07 12:37:00,72.3,40.6,30.02,North,354,7.7,12.5,32,0.00,,,0.00,WUHU216WMR100,2013-05-07 17:37:00,
2013-05-07 12:42:00,72.5,41.6,30.02,North,7,9.2,12.5,33,0.00,,,0.00,WUHU216WMR100,2013-05-07 17:42:00,
2013-05-07 12:47:00,71.8,40.2,30.02,NNW,337,9.6,9.6,32,0.00,,,0.00,WUHU216WMR100,2013-05-07 17:47:00,
2013-05-07 12:52:00,72.0,41.1,30.02,NW,325,5.0,9.6,33,0.00,,,0.00,WUHU216WMR100,2013-05-07 17:52:00,
2013-05-07 12:57:00,72.1,40.4,30.02,NNW,334,9.6,11.9,32,0.00,,,0.00,WUHU216WMR100,2013-05-07 17:57:00,
2013-05-07 13:02:00,72.0,40.3,30.02,NNE,22,9.9,11.9,32,0.00,,,0.00,WUHU216WMR100,2013-05-07 18:02:00,
2013-05-07 13:07:00,72.3,40.6,30.02,NNW,337,12.2,12.2,32,0.00,,,0.00,WUHU216WMR100,2013-05-07 18:07:00,
2013-05-07 13:12:00,71.8,40.2,29.99,NW,315,8.9,12.2,32,0.00,,,0.00,WUHU216WMR100,2013-05-07 18:12:00,
2013-05-07 13:17:00,71.6,40.0,29.99,NW,315,8.9,12.2,32,0.00,,,0.00,WUHU216WMR100,2013-05-07 18:17:00,
2013-05-07 13:22:00,72.3,40.6,29.99,NNW,336,8.2,11.9,32,0.00,,,0.00,WUHU216WMR100,2013-05-07 18:22:00,
2013-05-07 13:27:00,72.9,41.1,29.99,NNW,328,10.4,12.9,32,0.00,,,0.00,WUHU216WMR100,2013-05-07 18:27:00,
2013-05-07 13:32:00,73.2,42.2,29.99,NNE,30,6.9,12.9,33,0.00,,,0.00,WUHU216WMR100,2013-05-07 18:32:00,
2013-05-07 13:37:00,74.3,42.4,29.99,North,0,4.8,9.2,32,0.00,,,0.00,WUHU216WMR100,2013-05-07 18:37:00,
2013-05-07 13:42:00,74.7,40.2,29.99,NW,311,5.8,6.6,29,0.00,,,0.00,WUHU216WMR100,2013-05-07 18:42:00,
2013-05-07 13:47:00,73.9,41.2,29.99,NNE,22,7.1,10.4,31,0.00,,,0.00,WUHU216WMR100,2013-05-07 18:47:00,
2013-05-07 13:52:00,73.8,39.4,29.99,NNW,346,7.2,10.4,29,0.00,,,0.00,WUHU216WMR100,2013-05-07 18:52:00,
2013-05-07 13:57:00,73.9,41.2,29.99,NNW,337,9.2,10.4,31,0.00,,,0.00,WUHU216WMR100,2013-05-07 18:57:00,
2013-05-07 14:02:00,73.8,41.9,29.99,NW,315,6.3,9.9,32,0.00,,,0.00,WUHU216WMR100,2013-05-07 19:02:00,
2013-05-07 14:07:00,73.2,41.4,29.99,NNE,32,6.4,14.7,32,0.00,,,0.00,WUHU216WMR100,2013-05-07 19:07:00,
2013-05-07 14:13:00,72.9,41.1,29.99,NNW,342,10.8,14.7,32,0.00,,,0.00,WUHU216WMR100,2013-05-07 19:13:00,
2013-05-07 14:18:00,73.4,41.6,29.99,NNW,337,9.2,12.9,32,0.00,,,0.00,WUHU216WMR100,2013-05-07 19:18:00,
2013-05-07 14:23:00,72.9,41.9,29.99,NNW,337,8.9,12.2,33,0.00,,,0.00,WUHU216WMR100,2013-05-07 19:23:00,
2013-05-07 14:28:00,72.9,41.9,29.99,NNE,22,6.6,12.2,33,0.00,,,0.00,WUHU216WMR100,2013-05-07 19:28:00,
2013-05-07 14:33:00,72.7,41.8,29.99,NNW,337,12.2,12.2,33,0.00,,,0.00,WUHU216WMR100,2013-05-07 19:33:00,
2013-05-07 14:38:00,73.0,41.2,29.99,NNW,337,9.6,12.2,32,0.00,,,0.00,WUHU216WMR100,2013-05-07 19:38:00,
2013-05-07 14:43:00,73.2,42.2,29.99,NW,318,5.5,12.2,33,0.00,,,0.00,WUHU216WMR100,2013-05-07 19:43:00,
2013-05-07 14:48:00,74.1,42.2,29.99,NW,315,6.3,9.6,32,0.00,,,0.00,WUHU216WMR100,2013-05-07 19:48:00,
2013-05-07 14:53:00,73.9,42.0,29.99,NW,315,4.8,7.1,32,0.00,,,0.00,WUHU216WMR100,2013-05-07 19:53:00,
2013-05-07 14:58:00,73.6,41.7,29.99,North,9,5.6,9.2,32,0.00,,,0.00,WUHU216WMR100,2013-05-07 19:58:00,
2013-05-07 15:03:00,73.6,41.7,29.99,NNW,337,4.8,9.6,32,0.00,,,0.00,WUHU216WMR100,2013-05-07 20:03:00,
2013-05-07 15:08:00,73.9,42.8,29.99,WNW,292,6.6,9.6,33,0.00,,,0.00,WUHU216WMR100,2013-05-07 20:08:00,
2013-05-07 15:13:00,74.1,43.0,29.99,NNE,22,4.8,6.6,33,0.00,,,0.00,WUHU216WMR100,2013-05-07 20:13:00,
2013-05-07 15:18:00,74.5,42.5,29.99,ENE,67,5.1,5.9,32,0.00,,,0.00,WUHU216WMR100,2013-05-07 20:18:00,
2013-05-07 15:23:00,73.8,41.9,29.99,NNW,337,7.1,7.1,32,0.00,,,0.00,WUHU216WMR100,2013-05-07 20:23:00,
2013-05-07 15:28:00,72.7,41.0,29.99,NNW,330,9.2,11.9,32,0.00,,,0.00,WUHU216WMR100,2013-05-07 20:28:00,
2013-05-07 15:33:00,72.7,41.8,29.99,NNW,347,10.1,11.9,33,0.00,,,0.00,WUHU216WMR100,2013-05-07 20:33:00,
2013-05-07 15:38:00,72.5,41.6,29.99,NNW,344,5.8,10.4,33,0.00,,,0.00,WUHU216WMR100,2013-05-07 20:38:00,
2013-05-07 15:43:00,73.0,42.0,29.96,North,354,4.8,8.9,33,0.00,,,0.00,WUHU216WMR100,2013-05-07 20:43:00,
2013-05-07 15:48:00,73.6,42.5,29.96,NNW,337,9.6,9.6,33,0.00,,,0.00,WUHU216WMR100,2013-05-07 20:48:00,
2013-05-07 15:53:00,73.8,41.9,29.96,NNW,337,5.1,9.6,32,0.00,,,0.00,WUHU216WMR100,2013-05-07 20:53:00,
2013-05-07 15:58:00,73.8,41.9,29.96,North,6,5.7,9.6,32,0.00,,,0.00,WUHU216WMR100,2013-05-07 20:58:00,
2013-05-07 16:03:00,72.7,41.0,29.96,NNE,19,6.6,8.9,32,0.00,,,0.00,WUHU216WMR100,2013-05-07 21:03:00,
2013-05-07 16:08:00,72.3,41.4,29.96,NW,313,3.6,8.9,33,0.00,,,0.00,WUHU216WMR100,2013-05-07 21:08:00,
2013-05-07 16:13:00,72.1,40.4,29.96,NE,54,7.9,9.6,32,0.00,,,0.00,WUHU216WMR100,2013-05-07 21:13:00,
2013-05-07 16:18:00,72.1,41.2,29.96,NNW,337,4.5,9.6,33,0.00,,,0.00,WUHU216WMR100,2013-05-07 21:18:00,
2013-05-07 16:23:00,71.4,40.6,29.96,North,353,6.0,10.4,33,0.00,,,0.00,WUHU216WMR100,2013-05-07 21:23:00,
2013-05-07 16:28:00,70.9,40.2,29.96,NNE,30,7.8,10.7,33,0.00,,,0.00,WUHU216WMR100,2013-05-07 21:28:00,
2013-05-07 16:33:00,70.3,39.6,29.96,NNE,22,7.8,10.7,33,0.00,,,0.00,WUHU216WMR100,2013-05-07 21:33:00,
2013-05-07 16:38:00,70.9,40.9,29.96,NNW,337,4.8,10.4,34,0.00,,,0.00,WUHU216WMR100,2013-05-07 21:38:00,
2013-05-07 16:43:00,70.7,40.0,29.96,North,6,8.0,9.2,33,0.00,,,0.00,WUHU216WMR100,2013-05-07 21:43:00,
2013-05-07 16:48:00,70.3,39.6,29.96,NNE,22,6.6,9.2,33,0.00,,,0.00,WUHU216WMR100,2013-05-07 21:48:00,
2013-05-07 16:53:00,69.8,40.0,29.96,NNW,337,5.9,7.8,34,0.00,,,0.00,WUHU216WMR100,2013-05-07 21:53:00,
2013-05-07 16:58:00,69.6,40.6,29.96,North,0,0.0,7.8,35,0.00,,,0.00,WUHU216WMR100,2013-05-07 21:58:00,
2013-05-07 17:03:00,69.6,40.6,29.96,NNW,337,3.3,4.1,35,0.00,,,0.00,WUHU216WMR100,2013-05-07 22:03:00,
2013-05-07 17:08:00,69.8,40.7,29.96,WNW,292,2.6,3.3,35,0.00,,,0.00,WUHU216WMR100,2013-05-07 22:08:00,
2013-05-07 17:13:00,70.0,40.9,29.96,NE,45,6.3,6.3,35,0.00,,,0.00,WUHU216WMR100,2013-05-07 22:13:00,
2013-05-07 17:18:00,69.8,40.0,29.96,NW,315,3.3,6.3,34,0.00,,,0.00,WUHU216WMR100,2013-05-07 22:18:00,
2013-05-07 17:23:00,69.6,39.8,29.96,NNW,337,3.6,5.9,34,0.00,,,0.00,WUHU216WMR100,2013-05-07 22:23:00,
2013-05-07 17:28:00,69.3,39.5,29.96,North,352,4.5,12.9,34,0.00,,,0.00,WUHU216WMR100,2013-05-07 22:28:00,
2013-05-07 17:33:00,69.1,39.4,29.96,NE,45,5.1,12.9,34,0.00,,,0.00,WUHU216WMR100,2013-05-07 22:33:00,
2013-05-07 17:38:00,68.4,38.0,29.96,NNW,337,9.3,10.7,33,0.00,,,0.00,WUHU216WMR100,2013-05-07 22:38:00,
2013-05-07 17:43:00,67.6,38.0,29.96,NW,315,8.1,10.7,34,0.00,,,0.00,WUHU216WMR100,2013-05-07 22:43:00,
2013-05-07 17:48:00,67.1,38.3,29.96,North,9,5.0,8.9,35,0.00,,,0.00,WUHU216WMR100,2013-05-07 22:48:00,
2013-05-07 17:53:00,66.7,38.0,29.96,ENE,67,4.5,8.9,35,0.00,,,0.00,WUHU216WMR100,2013-05-07 22:53:00,
2013-05-07 17:58:00,66.6,37.9,29.99,North,0,6.3,6.6,35,0.00,,,0.00,WUHU216WMR100,2013-05-07 22:58:00,
2013-05-07 18:03:00,66.0,38.1,29.99,ENE,74,7.1,7.8,36,0.00,,,0.00,WUHU216WMR100,2013-05-07 23:03:00,
2013-05-07 18:08:00,65.8,37.9,29.99,NNW,337,5.1,7.8,36,0.00,,,0.00,WUHU216WMR100,2013-05-07 23:08:00,
2013-05-07 18:13:00,65.7,37.8,29.99,NNW,341,5.0,6.3,36,0.00,,,0.00,WUHU216WMR100,2013-05-07 23:13:00,
2013-05-07 18:18:00,65.7,38.5,29.99,NNE,22,5.6,5.9,37,0.00,,,0.00,WUHU216WMR100,2013-05-07 23:18:00,
2013-05-07 18:23:00,65.5,38.4,29.99,North,0,4.1,6.3,37,0.00,,,0.00,WUHU216WMR100,2013-05-07 23:23:00,
2013-05-07 18:28:00,65.1,38.0,29.99,NW,326,4.3,6.3,37,0.00,,,0.00,WUHU216WMR100,2013-05-07 23:28:00,
2013-05-07 18:33:00,64.8,38.4,29.99,NNW,337,4.1,5.9,38,0.00,,,0.00,WUHU216WMR100,2013-05-07 23:33:00,
2013-05-07 18:38:00,64.2,38.6,29.99,NNW,337,2.1,5.9,39,0.00,,,0.00,WUHU216WMR100,2013-05-07 23:38:00,
2013-05-07 18:43:00,64.0,39.0,29.96,NNE,22,2.9,4.1,40,0.00,,,0.00,WUHU216WMR100,2013-05-07 23:43:00,
2013-05-07 18:48:00,63.7,38.8,29.96,ENE,67,4.8,4.8,40,0.00,,,0.00,WUHU216WMR100,2013-05-07 23:48:00,
2013-05-07 18:53:00,63.3,39.1,29.96,NNW,337,4.5,5.6,41,0.00,,,0.00,WUHU216WMR100,2013-05-07 23:53:00,
2013-05-07 18:58:00,63.0,38.8,29.99,NW,315,3.6,5.6,41,0.00,,,0.00,WUHU216WMR100,2013-05-07 23:58:00,
2013-05-07 19:03:00,62.6,39.7,29.99,North,1,4.2,5.1,43,0.00,,,0.00,WUHU216WMR100,2013-05-08 00:03:00,
2013-05-07 19:08:00,62.2,39.9,29.99,NNW,337,5.4,5.6,44,0.00,,,0.00,WUHU216WMR100,2013-05-08 00:08:00,
2013-05-07 19:13:00,61.7,40.1,29.96,NNW,344,2.4,5.6,45,0.00,,,0.00,WUHU216WMR100,2013-05-08 00:13:00,
2013-05-07 19:18:00,61.3,40.3,29.96,NNE,22,3.3,4.1,46,0.00,,,0.00,WUHU216WMR100,2013-05-08 00:18:00,
2013-05-07 19:23:00,60.8,39.8,29.96,North,9,3.8,4.8,46,0.00,,,0.00,WUHU216WMR100,2013-05-08 00:23:00,
2013-05-07 19:28:00,60.6,39.6,29.99,NNW,337,2.1,4.8,46,0.00,,,0.00,WUHU216WMR100,2013-05-08 00:28:00,
2013-05-07 19:33:00,60.1,40.3,29.99,NNW,337,4.5,4.5,48,0.00,,,0.00,WUHU216WMR100,2013-05-08 00:33:00,
2013-05-07 19:38:00,59.7,39.9,29.99,NW,315,2.1,4.5,48,0.00,,,0.00,WUHU216WMR100,2013-05-08 00:38:00,
2013-05-07 19:43:00,59.4,40.2,29.99,NW,315,2.6,4.1,49,0.00,,,0.00,WUHU216WMR100,2013-05-08 00:43:00,
2013-05-07 19:48:00,58.8,40.2,29.99,NNW,337,0.0,2.6,50,0.00,,,0.00,WUHU216WMR100,2013-05-08 00:48:00,
2013-05-07 19:53:00,58.5,39.9,29.99,NNW,337,1.5,3.6,50,0.00,,,0.00,WUHU216WMR100,2013-05-08 00:53:00,
2013-05-07 19:58:00,58.1,39.6,29.99,NNW,337,0.0,3.6,50,0.00,,,0.00,WUHU216WMR100,2013-05-08 00:58:00,
2013-05-07 20:03:00,57.7,39.7,29.99,North,0,2.1,2.1,51,0.00,,,0.00,WUHU216WMR100,2013-05-08 01:03:00,
2013-05-07 20:08:00,57.4,40.4,29.99,ENE,67,4.0,5.1,53,0.00,,,0.00,WUHU216WMR100,2013-05-08 01:08:00,
2013-05-07 20:14:00,57.0,40.6,29.99,NE,38,3.5,5.1,54,0.00,,,0.00,WUHU216WMR100,2013-05-08 01:14:00,
2013-05-07 20:19:00,56.8,40.4,29.99,ENE,67,2.1,4.5,54,0.00,,,0.00,WUHU216WMR100,2013-05-08 01:19:00,
2013-05-07 20:24:00,56.3,39.9,29.99,NE,45,0.0,2.6,54,0.00,,,0.00,WUHU216WMR100,2013-05-08 01:24:00,
2013-05-07 20:29:00,56.1,39.7,29.99,NE,45,0.0,0.0,54,0.00,,,0.00,WUHU216WMR100,2013-05-08 01:29:00,
2013-05-07 20:34:00,55.8,39.9,29.99,North,0,0.0,0.0,55,0.00,,,0.00,WUHU216WMR100,2013-05-08 01:34:00,
2013-05-07 20:39:00,55.2,39.8,29.99,NNW,337,0.0,0.0,56,0.00,,,0.00,WUHU216WMR100,2013-05-08 01:39:00,
2013-05-07 20:44:00,54.9,39.6,29.99,NNW,337,0.0,0.0,56,0.00,,,0.00,WUHU216WMR100,2013-05-08 01:44:00,
2013-05-07 20:49:00,54.7,39.8,29.99,NNW,337,0.0,0.0,57,0.00,,,0.00,WUHU216WMR100,2013-05-08 01:49:00,
2013-05-07 20:54:00,54.5,39.7,29.99,NNW,337,0.0,0.0,57,0.00,,,0.00,WUHU216WMR100,2013-05-08 01:54:00,
2013-05-07 20:59:00,53.8,39.5,29.99,NNW,337,0.0,0.0,58,0.00,,,0.00,WUHU216WMR100,2013-05-08 01:59:00,
2013-05-07 21:04:00,53.2,39.8,29.99,NNW,337,0.0,0.0,60,0.00,,,0.00,WUHU216WMR100,2013-05-08 02:04:00,
2013-05-07 21:09:00,52.9,39.9,29.99,NNW,337,0.0,0.0,61,0.00,,,0.00,WUHU216WMR100,2013-05-08 02:09:00,
2013-05-07 21:14:00,52.5,40.0,29.99,NNW,337,0.0,0.0,62,0.00,,,0.00,WUHU216WMR100,2013-05-08 02:14:00,
2013-05-07 21:19:00,52.3,39.8,29.99,NNE,22,0.0,0.0,62,0.00,,,0.00,WUHU216WMR100,2013-05-08 02:19:00,
2013-05-07 21:24:00,52.0,40.3,29.99,NNE,22,0.0,0.0,64,0.00,,,0.00,WUHU216WMR100,2013-05-08 02:24:00,
2013-05-07 21:29:00,51.8,40.5,29.99,NNE,22,0.0,0.0,65,0.00,,,0.00,WUHU216WMR100,2013-05-08 02:29:00,
2013-05-07 21:34:00,51.6,39.9,29.99,NNE,22,0.0,0.0,64,0.00,,,0.00,WUHU216WMR100,2013-05-08 02:34:00,
2013-05-07 21:39:00,51.3,40.4,29.99,NNE,22,0.0,0.0,66,0.00,,,0.00,WUHU216WMR100,2013-05-08 02:39:00,
2013-05-07 21:44:00,51.3,40.8,29.99,NNE,22,0.0,0.0,67,0.00,,,0.00,WUHU216WMR100,2013-05-08 02:44:00,
2013-05-07 21:49:00,51.1,40.6,29.99,NNE,22,0.0,0.0,67,0.00,,,0.00,WUHU216WMR100,2013-05-08 02:49:00,
2013-05-07 21:54:00,50.9,40.4,29.99,NNE,22,0.0,0.0,67,0.00,,,0.00,WUHU216WMR100,2013-05-08 02:54:00,
2013-05-07 21:59:00,50.7,40.6,29.99,NNE,22,0.0,0.0,68,0.00,,,0.00,WUHU216WMR100,2013-05-08 02:59:00,
2013-05-07 22:04:00,50.7,40.6,29.99,NNE,22,0.0,0.0,68,0.00,,,0.00,WUHU216WMR100,2013-05-08 03:04:00,
2013-05-07 22:09:00,50.9,41.2,29.99,NNE,22,0.0,0.0,69,0.00,,,0.00,WUHU216WMR100,2013-05-08 03:09:00,
2013-05-07 22:14:00,50.9,41.6,29.99,ENE,67,0.0,2.1,70,0.00,,,0.00,WUHU216WMR100,2013-05-08 03:14:00,
2013-05-07 22:19:00,51.1,41.8,29.99,ENE,67,3.6,3.6,70,0.00,,,0.00,WUHU216WMR100,2013-05-08 03:19:00,
2013-05-07 22:24:00,51.4,42.4,29.99,NNE,22,0.0,3.6,71,0.00,,,0.00,WUHU216WMR100,2013-05-08 03:24:00,
2013-05-07 22:29:00,51.6,42.6,29.99,NNE,22,0.0,0.0,71,0.00,,,0.00,WUHU216WMR100,2013-05-08 03:29:00,
2013-05-07 22:34:00,51.4,42.0,29.99,NNE,22,0.0,0.0,70,0.00,,,0.00,WUHU216WMR100,2013-05-08 03:34:00,
2013-05-07 22:39:00,51.3,42.0,29.99,NNE,22,0.0,0.0,70,0.00,,,0.00,WUHU216WMR100,2013-05-08 03:39:00,
2013-05-07 22:44:00,51.1,41.8,29.99,NNE,22,0.0,0.0,70,0.00,,,0.00,WUHU216WMR100,2013-05-08 03:44:00,
2013-05-07 22:49:00,50.9,41.6,29.99,NNE,22,0.0,0.0,70,0.00,,,0.00,WUHU216WMR100,2013-05-08 03:49:00,
2013-05-07 22:54:00,50.9,41.6,29.99,NNE,22,0.0,0.0,70,0.00,,,0.00,WUHU216WMR100,2013-05-08 03:54:00,
2013-05-07 22:59:00,50.7,41.7,29.99,NNE,22,0.0,0.0,71,0.00,,,0.00,WUHU216WMR100,2013-05-08 03:59:00,
2013-05-07 23:01:00,50.7,41.7,29.99,NNE,22,0.0,0.0,71,0.00,,,0.00,WUHU216WMR100,2013-05-08 04:01:00,
2013-05-07 23:06:00,50.4,41.5,29.99,NNE,22,0.0,0.0,71,0.00,,,0.00,WUHU216WMR100,2013-05-08 04:06:00,
2013-05-07 23:11:00,50.2,41.6,29.99,NNE,22,0.0,0.0,72,0.00,,,0.00,WUHU216WMR100,2013-05-08 04:11:00,
2013-05-07 23:16:00,50.2,41.6,29.99,NNE,22,0.0,0.0,72,0.00,,,0.00,WUHU216WMR100,2013-05-08 04:16:00,
2013-05-07 23:21:00,50.0,41.4,29.99,NNE,22,0.0,0.0,72,0.00,,,0.00,WUHU216WMR100,2013-05-08 04:21:00,
2013-05-07 23:26:00,49.8,41.6,29.99,NNE,22,0.0,0.0,73,0.00,,,0.00,WUHU216WMR100,2013-05-08 04:26:00,
2013-05-07 23:31:00,49.6,41.7,29.99,NNE,22,0.0,0.0,74,0.00,,,0.00,WUHU216WMR100,2013-05-08 04:31:00,
2013-05-07 23:36:00,49.5,41.3,29.99,NNE,22,0.0,0.0,73,0.00,,,0.00,WUHU216WMR100,2013-05-08 04:36:00,
2013-05-07 23:41:00,49.5,41.6,29.99,NNE,22,0.0,0.0,74,0.00,,,0.00,WUHU216WMR100,2013-05-08 04:41:00,
2013-05-07 23:46:00,49.3,41.8,29.99,NNE,22,0.0,0.0,75,0.00,,,0.00,WUHU216WMR100,2013-05-08 04:46:00,
2013-05-07 23:51:00,49.1,41.6,29.99,NNE,22,0.0,0.0,75,0.00,,,0.00,WUHU216WMR100,2013-05-08 04:51:00,
2013-05-07 23:56:00,48.9,41.4,29.99,NNE,22,0.0,0.0,75,0.00,,,0.00,WUHU216WMR100,2013-05-08 04:56:00,